STARLINK-1030, 44735

Orbit data source: Space-Track

STARLINK-1030, 44735 is a payload satellite owned by SpaceX/Seattle (US) in LEO that was launched on Mon, 11 Nov 2019 UTC via an FALCON 9 launch vehicle from the Air Force Eastern Test Range (AFETR). Payload-class satellites include a variety of spacecraft equipped with specific instruments for various scientific and technological missions. These include communications satellites like Starlink; space stations such as the ISS; scientific satellites like the Hubble; Earth observation satellites from companies like Planet Labs, Umbra, and HawkEye 360; GPS; miniature CubeSats for education and research; and military/defense satellites.

Not visible in the next 10 days
Identifier
44735, 2019-074Y
Orbit
LEO
Country
Flag of USUS
Related business
Manufacturer
SpaceX/Seattle
Mission
Partially operational Commercial Communications
Bus & Motor
STARLINK, Unknown motor
Mass
260 kg wet, ~248 kg dry
Launch date (UTC)
2019-11-11 (6 years ago)
Launch vehicle
FALCON 9
Launch site
Air Force Eastern Test Range (AFETR)
Object type
Payload
Rocket body
Debris
Shape & HBR
Box + 1 Pan, 4.4 m
Radar Cross Section
13.562 m², Large (>1 m²)

Expand to show TLE details & history
Last TLE update: 13 hours ago

TLE from 13 hours ago
0 STARLINK-1030
1 44735U 19074Y   25260.42373968  .02430602  11885-4  96916-3 0  9999
2 44735  53.0339 204.6348 0004411 225.9317 134.1360 16.22914716323188
Epoch: 2025-09-17T10:10Z
TLE epoch observation values (Epoch: 2025-09-17T10:10:11.108Z)
Latitude
0.00004°
Longitude
55.48865°
Altitude
214.596 km
Speed
7.778 km/s
True Right ascension
13h 38m 32s
True Declination
0° 00' 00"
Sunlit
Object was in daylight at epoch
Visualization orbit readout
Latitude
Unknown
Longitude
Unknown
Altitude
Unknown
Speed
Unknown
Apparent Right ascension
Unknown
Apparent Declination
Unknown
Sunlit
N/A
Visualization observer readout
Local Sidereal Time
16:18:14
Azimuth
Unknown
Elevation
Unknown
Doppler factor
Unknown
Orbital elements
Apogee altitude
214.844 km
Perigee altitude
209.031 km
Semi-major axis
6,590.075 km
Eccentricity
0.00044
Inclination
53.0339°
RAAN
204.6348°
Arg. of periapsis
225.9317°
True anomaly
134.17226°
Mean anomaly
134.136°
Eccentric anomaly
134.15413°
Mean motion
4.05702 °/min
Orbital period
88.73 mins
BSTAR
0.00096916
Loading maneuver chart data...
Computing Atmospheric mass density...

Documentation

Showing up to 5 results
|